Boothville, LA

5:00 AM CDT on March 29, 2017 (GMT -0500)
Boothville

Weather History for KBVE - January, 2013

Change the Weather History Date:

Tuesday, January 29, 2013

  Actual Average (KAXO) Record (KAXO)
Temperature  
Mean Temperature 70 °F -  
Max Temperature 75 °F 58 °F 73 °F (2013)
Min Temperature 64 °F 54 °F 30 °F (2014)
Cooling Degree Days 4    
Growing Degree Days 20 (Base 50)    
Moisture  
Dew Point 68 °F    
Average Humidity 96    
Maximum Humidity 100    
Minimum Humidity 83    
Precipitation  
Precipitation 0.00 in - - ()
Sea Level Pressure  
Sea Level Pressure 30.01 in    
Wind  
Wind Speed 9 mph (SSE)    
Max Wind Speed 18 mph    
Max Gust Speed 25 mph    
Visibility 4 miles    
Events Fog    
Averages and records for this station are not official NWS values.
T = Trace of Precipitation, MM = Missing Value Source: NWS Daily Summary

Daily Weather History Graph

Daily Weather History Graph

Search for Another Location

Airport or City:

Trip Planner

Search our weather history database for the weather conditions in past years. The results will help you decide how hot, cold, wet, or windy it might be!

Date:

Astronomy

Jan. 29, 2013 Rise Set
Actual Time 6:48 AM CST 5:33 PM CST
Civil Twilight 6:23 AM CST 5:58 PM CST
Nautical Twilight 5:54 AM CST 6:27 PM CST
Astronomical Twilight 5:26 AM CST 6:55 PM CST
Moon 8:11 PM CST 8:00 AM CST
Length of Visible Light 11h 35m
Length of Day
10h 45m
Waning Gibbous, 93% of the Moon is Illuminated
Jan 29
Waning Gibbous
Feb 3
Last Quarter
Feb 10
New
Feb 17
First Quarter
Feb 25
Full

Hourly Weather History & Observations

Time (CST) Temp. Dew Point Humidity Pressure Visibility Wind Dir Wind Speed Gust Speed Precip Events Conditions
12:13 AM 64.4 °F 64.4 °F 100% 30.12 in 2.0 mi ESE 8.1 mph - N/A   Mostly Cloudy
12:16 AM 64.4 °F 64.4 °F 100% 30.12 in 1.0 mi SE 8.1 mph - N/A   Mostly Cloudy
12:19 AM 64.4 °F 64.4 °F 100% 30.12 in 0.5 mi SE 8.1 mph - N/A Fog Fog
12:27 AM 64.4 °F 64.4 °F 100% 30.12 in 0.2 mi SE 6.9 mph - N/A Fog Fog
12:38 AM 64.4 °F 64.4 °F 100% 30.12 in 1.0 mi SE 6.9 mph - N/A   Overcast
12:42 AM 64.4 °F 64.4 °F 100% 30.12 in 2.5 mi SE 8.1 mph - N/A   Overcast
12:49 AM 66.2 °F 64.4 °F 94% 30.12 in 6.0 mi SE 8.1 mph - N/A   Overcast
12:51 AM 66.0 °F 66.0 °F 100% 30.12 in 6.0 mi SE 8.1 mph - N/A   Overcast
1:51 AM 66.0 °F 64.9 °F 96% 30.10 in 8.0 mi SE 6.9 mph - N/A   Scattered Clouds
2:04 AM 66.2 °F 64.4 °F 94% 30.09 in 8.0 mi SE 8.1 mph - N/A   Mostly Cloudy
2:51 AM 66.0 °F 64.9 °F 96% 30.09 in 8.0 mi SE 4.6 mph - N/A   Scattered Clouds
3:13 AM 64.4 °F 64.4 °F 100% 30.09 in 7.0 mi Calm Calm - N/A   Mostly Cloudy
3:20 AM 64.4 °F 64.4 °F 100% 30.09 in 6.0 mi SE 3.5 mph - N/A   Mostly Cloudy
3:31 AM 66.2 °F 64.4 °F 94% 30.08 in 6.0 mi SE 6.9 mph - N/A   Mostly Cloudy
3:51 AM 64.9 °F 64.0 °F 97% 30.08 in 6.0 mi ESE 6.9 mph - N/A   Scattered Clouds
4:12 AM 64.4 °F 64.4 °F 100% 30.07 in 4.0 mi SE 6.9 mph - N/A   Scattered Clouds
4:20 AM 64.4 °F 64.4 °F 100% 30.07 in 5.0 mi SE 6.9 mph - N/A   Mostly Cloudy
4:32 AM 66.2 °F 64.4 °F 94% 30.07 in 6.0 mi SE 5.8 mph - N/A   Overcast
4:51 AM 64.9 °F 64.9 °F 100% 30.07 in 3.0 mi SE 4.6 mph - N/A   Mostly Cloudy
5:05 AM 64.4 °F 64.4 °F 100% 30.07 in 2.5 mi SE 5.8 mph - N/A   Mostly Cloudy
5:12 AM 64.4 °F 64.4 °F 100% 30.07 in 3.0 mi SE 5.8 mph - N/A   Scattered Clouds
5:25 AM 64.4 °F 64.4 °F 100% 30.07 in 2.5 mi SE 6.9 mph - N/A   Mostly Cloudy
5:35 AM 64.4 °F 64.4 °F 100% 30.07 in 1.0 mi SE 5.8 mph - N/A   Mist
5:38 AM 64.4 °F 64.4 °F 100% 30.07 in 0.8 mi SE 4.6 mph - N/A   Mist
5:51 AM 64.9 °F 64.9 °F 100% 30.07 in 0.5 mi SE 5.8 mph - N/A Fog Fog
6:01 AM 64.4 °F 64.4 °F 100% 30.07 in 0.2 mi SE 6.9 mph - N/A Fog Fog
6:14 AM 64.4 °F 64.4 °F 100% 30.07 in 0.2 mi SE 6.9 mph - N/A Fog Fog
6:26 AM 64.4 °F 64.4 °F 100% 30.07 in 0.8 mi SE 5.8 mph - N/A   Mist
6:51 AM 66.0 °F 66.0 °F 100% 30.07 in 0.2 mi SE 4.6 mph - N/A Fog Fog
7:51 AM 66.0 °F 66.0 °F 100% 30.08 in 0.2 mi ESE 5.8 mph - N/A Fog Fog
8:51 AM 69.1 °F 69.1 °F 100% 30.08 in 0.2 mi SE 8.1 mph - N/A Fog Fog
9:06 AM 69.8 °F 69.8 °F 100% 30.09 in 0.8 mi South 5.8 mph - N/A   Mist
9:25 AM 69.8 °F 69.8 °F 100% 30.09 in 0.2 mi SSE 6.9 mph - N/A Fog Fog
9:33 AM 69.8 °F 69.8 °F 100% 30.08 in 1.0 mi SSE 8.1 mph - N/A   Overcast
9:40 AM 71.6 °F 69.8 °F 94% 30.08 in 3.0 mi SSE 8.1 mph - N/A   Overcast
9:47 AM 71.1 °F 70.0 °F 96% 30.08 in 5.0 mi South 8.1 mph - N/A   Overcast
10:07 AM 71.6 °F 69.8 °F 94% 30.07 in 8.0 mi South 10.4 mph - N/A   Mostly Cloudy
10:51 AM 73.9 °F 70.0 °F 87% 30.06 in 9.0 mi South 12.7 mph - N/A   Partly Cloudy
11:20 AM 73.4 °F 69.8 °F 88% 30.05 in 10.0 mi South 11.5 mph - N/A   Mostly Cloudy
11:36 AM 73.4 °F 69.8 °F 88% 30.04 in 10.0 mi SSE 10.4 mph - N/A   Scattered Clouds
11:43 AM 75.2 °F 69.8 °F 83% 30.03 in 9.0 mi SSE 12.7 mph - N/A   Mostly Cloudy
11:51 AM 73.9 °F 69.1 °F 85% 30.02 in 9.0 mi SSE 17.3 mph 21.9 mph N/A   Mostly Cloudy
12:00 PM 75.2 °F 69.8 °F 83% 30.02 in 9.0 mi SSE 15.0 mph - N/A   Overcast
12:25 PM 75.2 °F 69.8 °F 83% 29.99 in 9.0 mi South 15.0 mph 23.0 mph N/A   Overcast
12:51 PM 75.9 °F 71.1 °F 85% 29.97 in 9.0 mi SSE 18.4 mph 25.3 mph N/A   Scattered Clouds
1:51 PM 75.0 °F 70.0 °F 84% 29.96 in 8.0 mi SSE 12.7 mph - N/A   Clear
2:51 PM 75.0 °F 70.0 °F 84% 29.95 in 7.0 mi South 12.7 mph - N/A   Mostly Cloudy
3:38 PM 73.4 °F 69.8 °F 88% 29.93 in 7.0 mi SSE 13.8 mph - N/A   Overcast
3:51 PM 73.9 °F 70.0 °F 87% 29.93 in 7.0 mi SSE 16.1 mph 20.7 mph N/A   Overcast
4:38 PM 73.4 °F 71.6 °F 94% 29.92 in 6.0 mi SSE 16.1 mph 21.9 mph N/A   Overcast
4:51 PM 73.0 °F 70.0 °F 90% 29.92 in 6.0 mi SSE 11.5 mph 18.4 mph N/A   Overcast
5:09 PM 73.4 °F 71.6 °F 94% 29.92 in 5.0 mi SSE 10.4 mph - N/A   Overcast
5:51 PM 71.1 °F 70.0 °F 96% 29.91 in 5.0 mi SSE 12.7 mph - N/A   Overcast
6:13 PM 71.6 °F 71.6 °F 100% 29.92 in 6.0 mi SSE 9.2 mph - N/A   Overcast
6:51 PM 70.0 °F 70.0 °F 100% 29.93 in 5.0 mi SSE 8.1 mph - N/A   Overcast
7:11 PM 69.8 °F 69.8 °F 100% 29.93 in 4.0 mi SSE 11.5 mph - N/A   Overcast
7:51 PM 70.0 °F 70.0 °F 100% 29.92 in 4.0 mi SSE 13.8 mph - N/A   Mostly Cloudy
8:29 PM 71.6 °F 69.8 °F 94% 29.92 in 4.0 mi SSE 11.5 mph - N/A   Mostly Cloudy
8:51 PM 70.0 °F 69.1 °F 97% 29.91 in 3.0 mi SSE 15.0 mph - N/A   Overcast
9:20 PM 69.8 °F 69.8 °F 100% 29.90 in 3.0 mi SSE 15.0 mph - N/A   Overcast
9:31 PM 69.8 °F 69.8 °F 100% 29.90 in 1.8 mi SSE 15.0 mph - N/A   Overcast
9:51 PM 69.1 °F 69.1 °F 100% 29.89 in 1.5 mi SSE 15.0 mph - N/A   Overcast
10:01 PM 69.8 °F 69.8 °F 100% 29.89 in 2.5 mi SSE 13.8 mph - N/A   Overcast
10:08 PM 69.8 °F 69.8 °F 100% 29.89 in 4.0 mi SSE 15.0 mph - N/A   Overcast
10:18 PM 69.8 °F 69.8 °F 100% 29.89 in 4.0 mi SSE 12.7 mph - N/A   Overcast
10:27 PM 69.8 °F 69.8 °F 100% 29.89 in 4.0 mi South 11.5 mph - N/A   Overcast
10:41 PM 69.8 °F 69.8 °F 100% 29.89 in 4.0 mi South 12.7 mph - N/A   Overcast
10:51 PM 70.0 °F 69.1 °F 97% 29.89 in 4.0 mi South 13.8 mph - N/A   Overcast
11:33 PM 69.8 °F 69.8 °F 100% 29.87 in 5.0 mi South 13.8 mph - N/A   Overcast
11:42 PM 69.8 °F 69.8 °F 100% 29.87 in 5.0 mi South 15.0 mph - N/A   Overcast
11:51 PM 70.0 °F 69.1 °F 97% 29.87 in 5.0 mi South 17.3 mph - N/A   Mostly Cloudy
11:58 PM 69.8 °F 69.8 °F 100% 29.87 in 6.0 mi South 16.1 mph - N/A   Mostly Cloudy